Weather observations for the past three days for
Jacksonville Naval Air Station
Imperial (Metric)
Date Time (edt) Wind (mph) Vis. (mi.) Weather Sky Cond. Temperature (ºF) Relative Humidity Wind Chill (°F) Heat Index (°F) Pressure Precipitation (in)
Air Dwpt 6 hour altimeter (in) sea level (mb) 1 hr 3 hr 6 hr
Max. Min.
13 14:53 NE 14 10.00 Mostly Cloudy SCT045 SCT070 BKN250 89.1 71.1 55% 95 29.9 1012.2
13 13:53 NE 16 10.00 Mostly Cloudy SCT040 BKN250 93.9 70 93.9 82.9 46% 100 29.9 1012.2
13 12:53 NE 13 10.00 Mostly Cloudy SCT038 BKN250 91.9 72 52% 100 29.9 1012.0
13 11:53 NE 9 10.00 Mostly Cloudy SCT040 BKN250 91.9 72 52% 100 29.9 1012.1
13 10:53 NE 8 10.00 Partly Cloudy SCT033 SCT250 90 73 58% 98 29.91 1012.5
13 09:53 N 7 10.00 Partly Cloudy SCT020 SCT250 88 73.9 63% 97 29.91 1012.5
13 08:53 NE 6 10.00 Partly Cloudy SCT015 SCT250 84 75.9 77% 93 29.92 1012.6
13 07:53 N 10 10.00 Partly Cloudy FEW015 SCT250 82.9 75.9 82.9 81 79% 91 29.89 1011.7
13 06:53 NE 7 10.00 Partly Cloudy FEW015 SCT250 82 75.9 82% 89 29.88 1011.2
13 05:53 NE 5 10.00 Partly Cloudy SCT013 SCT250 81 75.9 85% 87 29.87 1011.0
13 04:53 N 9 10.00 Partly Cloudy SCT013 SCT250 82 75.9 82% 89 29.86 1010.7
13 03:53 NE 8 10.00 Partly Cloudy FEW020 SCT250 81 75 82% 87 29.85 1010.4
13 02:53 NE 7 10.00 Partly Cloudy FEW020 SCT250 82 75 79% 89 29.86 1010.7
13 01:53 NE 7 10.00 Partly Cloudy SCT020 SCT250 82 75 84 81 79% 89 29.88 1011.5
13 00:53 E 9 10.00 Partly Cloudy SCT020 SCT250 82 75 79% 89 29.9 1012.0
12 23:53 NE 8 10.00 Partly Cloudy SCT020 SCT250 82 75 79% 89 29.91 1012.3
12 22:53 E 8 10.00 Partly Cloudy FEW020 SCT250 82 73.9 77% 88 29.9 1012.1
12 21:53 E 8 10.00 Mostly Cloudy FEW025 BKN210 82.9 73 72% 89 29.91 1012.3
12 20:53 E 8 10.00 Mostly Cloudy SCT027 BKN210 BKN250 82.9 73 72% 89 29.92 1012.7
12 19:53 E 10 10.00 Mostly Cloudy SCT027 BKN220 BKN250 84 73.9 91.9 84 72% 91 29.9 1011.9
12 18:53 E 14 G 20 10.00 Mostly Cloudy SCT029 BKN230 86 73.9 67% 94 29.91 1012.3
12 17:53 NE 14 G 24 10.00 Mostly Cloudy SCT030 BKN120 BKN250 89.1 73 59% 97 29.9 1012.2
12 16:53 NE 14 10.00 Mostly Cloudy BKN032 BKN250 90 73 58% 98 29.91 1012.4
12 15:53 E 16 10.00 Mostly Cloudy BKN031 BKN070 BKN250 88 73 61% 96 29.91 1012.4
12 14:53 E 16 G 26 10.00 Mostly Cloudy BKN035 BKN070 BKN250 91 73 56% 100 29.92 1012.6
12 13:53 E 9 G 21 10.00 Light Rain SCT031 BKN039 BKN080 BKN250 86 75 93 82 70% 95 29.93 1013.0
12 12:53 E 12 G 22 10.00 Mostly Cloudy BKN034 BKN080 BKN250 89.1 73 59% 97 29.93 1012.9
12 11:53 E 12 10.00 Mostly Cloudy BKN037 BKN250 91.9 73 54% 101 29.91 1012.5
12 10:53 E 10 10.00 Mostly Cloudy BKN038 BKN250 89.1 73 59% 97 29.92 1012.8
12 09:53 E 7 10.00 Mostly Cloudy SCT040 BKN080 BKN250 87.1 73.9 65% 95 29.93 1012.9
12 08:53 SE 3 10.00 Mostly Cloudy FEW021 SCT039 SCT090 BKN250 84 75 74% 92 29.92 1012.9
12 07:53 Calm 10.00 Mostly Cloudy FEW030 BKN085 BKN250 82 75 82 79 79% 89 29.92 1012.6
12 06:53 E 6 10.00 Mostly Cloudy FEW025 BKN080 BKN250 80.1 75 85% 85 29.9 1012.1
12 05:53 SE 8 10.00 Mostly Cloudy FEW030 SCT080 BKN250 80.1 75 85% 85 29.89 1011.7
12 04:53 SE 6 10.00 Partly Cloudy FEW015 SCT250 80.1 75 85% 85 29.89 1011.6
12 03:53 SE 6 10.00 A Few Clouds FEW015 FEW250 79 75 88% 83 29.88 1011.2
12 02:53 S 3 10.00 Partly Cloudy FEW015 FEW090 SCT250 81 75 82% 87 29.87 1011.0
12 01:53 S 8 10.00 Mostly Cloudy FEW015 SCT070 BKN120 82 75 86 81 79% 89 29.89 1011.8
12 00:53 S 8 10.00 Overcast FEW020 BKN070 OVC100 82 73.9 77% 88 29.9 1012.1
11 23:53 S 7 10.00 Overcast FEW020 BKN065 BKN120 OVC250 82.9 73.9 74% 89 29.89 1011.8
11 22:53 S 9 10.00 Overcast FEW015 BKN065 BKN120 OVC250 82.9 73 72% 89 29.89 1011.6
11 20:53 E 10 10.00 Mostly Cloudy FEW020 SCT050 BKN080 BKN250 84 77 80% 94 29.85 1010.4
11 19:53 E 10 10.00 Mostly Cloudy FEW050 BKN080 BKN250 86 75 95 86 70% 95 29.83 1009.8
11 18:53 E 14 10.00 Mostly Cloudy FEW050 SCT080 BKN250 88 73.9 63% 97 29.83 1009.6
11 17:53 E 12 10.00 Mostly Cloudy FEW050 SCT080 BKN250 91 75 59% 102 29.82 1009.3
11 16:53 E 10 10.00 Mostly Cloudy SCT035 BKN250 93 75 56% 104 29.82 1009.3
11 15:53 E 12 10.00 Mostly Cloudy SCT035 BKN250 93 75 56% 104 29.82 1009.3
11 14:53 E 9 10.00 Mostly Cloudy SCT060 BKN250 93 75 56% 104 29.83 1009.7
11 13:53 SE 6 10.00 Mostly Cloudy SCT050 SCT070 BKN250 93.9 69.1 93.9 82 44% 99 29.84 1009.9
11 12:53 SE 8 10.00 Mostly Cloudy SCT045 BKN250 91 72 54% 99 29.84 1010.1
11 11:53 S 8 10.00 Mostly Cloudy FEW040 BKN250 91.9 73.9 56% 102 29.85 1010.4
11 10:53 S 8 10.00 Mostly Cloudy FEW040 SCT150 BKN250 88 73.9 63% 97 29.86 1010.8
11 09:53 SW 7 10.00 Mostly Cloudy FEW040 SCT150 BKN250 84.9 73.9 70% 92 29.87 1011.0
11 08:53 W 7 10.00 Mostly Cloudy SCT150 BKN250 82.9 73 72% 89 29.86 1010.7
11 07:53 W 9 10.00 Mostly Cloudy SCT150 BKN250 82 72 82 79 72% 87 29.85 1010.4
11 06:53 W 10 10.00 Mostly Cloudy SCT150 BKN250 80.1 72 76% 84 29.84 1009.9
11 05:53 W 9 10.00 Mostly Cloudy FEW150 BKN250 80.1 72 76% 84 29.83 1009.8
11 04:53 SW 9 10.00 Mostly Cloudy FEW050 FEW150 BKN250 79 72 79% 82 29.84 1009.9
11 03:53 SW 10 10.00 Mostly Cloudy FEW050 FEW150 BKN250 80.1 71.1 74% 84 29.83 1009.8
11 02:53 SW 7 10.00 Mostly Cloudy FEW120 BKN250 81 70 69% 84 29.84 1009.9
11 01:53 W 9 10.00 Mostly Cloudy FEW050 BKN250 82 69.1 96.1 82 65% 85 29.82 1009.4
11 00:53 W 10 10.00 Partly Cloudy FEW050 SCT250 84 66.9 57% 87 29.83 1009.6
10 23:53 W 14 10.00 Partly Cloudy FEW050 SCT250 86 66 51% 88 29.82 1009.2
10 22:53 S 8 10.00 Partly Cloudy SCT250 84.9 75.9 75% 94 29.82 1009.3
10 21:53 S 14 10.00 Partly Cloudy SCT250 86 73.9 67% 94 29.8 1008.6
10 20:53 W 6 10.00 Mostly Cloudy FEW080 BKN250 93.9 61 33% 94 29.77 1007.7
10 19:53 W 8 10.00 Mostly Cloudy FEW080 BKN250 96.1 61 100.9 96.1 31% 97 29.76 1007.2
10 18:53 W 10 10.00 Mostly Cloudy FEW080 BKN250 99 61 29% 100 29.75 1007.0
10 17:53 W 14 10.00 Mostly Cloudy FEW060 BKN250 99 61 29% 100 29.75 1006.9
10 16:53 W 10 10.00 Mostly Cloudy FEW060 BKN250 98.1 61 29% 99 29.74 1006.8
10 15:53 W 6 G 22 10.00 Mostly Cloudy FEW050 BKN250 98.1 61 29% 99 29.76 1007.2
Date Time (edt) Wind (mph) Vis. (mi.) Weather Sky Cond. Air Dwpt Max. Min. Relative Humidity Wind Chill (°F) Heat Index (°F) altimeter (in) sea level (mb) 1 hr 3 hr 6 hr
6 hour
Temperature (ºF) Pressure Precipitation (in)